[[{"header":{"parameterUnit":"m.s-1","parameterCategory":1,"la1":30.2991,"la2":30.254,"lo1":-89.0895,"lo2":-89.0444,"dy":0.0017,"dx":0.0017,"nx":28,"ny":28,"refTime":"2026-02-06T09:00:00:Z","depth":0,"parameterNumber":2,"parameterNumberName":"U-component_of_WINDS"},"data":[0,0,0,0,0,0,0,0,0,0,0,0,0,0,0,0,0,0,0,0,0,0,0,0,0,0,0,0,0,0,0,0,0,0,0,0,0,0,0,0,0,0,0,0,0,0,0,0,0,0,0,0,0,0,0,0,0,0,-1.0074,-1.0073,0,-1.0044,-1.0044,-1.0044,-1.0001,-1.0001,-1.0,-0.9999,-0.9969,-0.9969,-0.9969,0,0,0,0,0,0,0,0,0,0,0,0,0,-1.0094,-1.0093,-1.0074,-1.0073,-1.0073,-1.0044,-1.0044,-1.0043,-1.0002,-1.0001,-1.0,-0.9999,-0.9969,-0.9969,-0.9969,0,0,0,0,0,0,0,0,0,0,0,0,0,-1.0077,-1.0093,-1.0074,-1.0049,-1.0046,-1.0044,-1.0044,-1.0043,-1.0002,-1.0001,-1.0,-0.9999,-0.9969,-0.9969,-0.9969,-0.9989,0,0,-0.9968,-0.9968,0,0,0,0,0,0,0,0,-1.0078,-1.0076,-1.0053,-1.005,-1.0048,-1.0025,-1.004,-1.0025,-1.0002,-1.0019,-0.9999,-0.9998,-0.9989,-0.9987,-0.9984,-0.9988,-0.9986,-0.9968,-0.9968,-0.9968,-0.9968,0,0,0,0,0,0,0,-1.0079,-1.0077,-1.0062,-1.0052,-1.0049,-1.0039,-1.0035,-1.0037,-1.001,-1.0017,-1.0014,-1.0011,-0.9987,-0.9984,-0.9983,-0.9986,-0.9968,-0.9968,-0.9968,-0.9968,-1.0005,-1.0006,0,0,0,0,0,0,-1.0084,-1.0078,-1.0063,-1.0061,-1.006,-1.0039,-1.0035,-1.0034,-1.001,-1.0005,-1.0012,-1.0009,-0.9985,-0.9983,-0.9981,-1.0004,-0.9968,-0.9968,-0.9967,-1.0004,-1.0005,-1.0007,0,0,0,0,0,0,-1.0084,-1.0083,-1.0064,-1.0069,-1.0066,-1.004,-1.0039,-1.0034,-1.003,-1.0006,-1.0001,-1.0014,-0.9984,-0.9982,-0.9987,-1.0002,-0.9968,-0.9967,-1.0003,-1.0004,-1.0006,-1.0049,0,0,0,0,0,0,-1.0085,-1.0083,-1.0091,-1.0069,-1.0066,-1.0071,-1.0039,-1.0034,-1.003,-1.0026,-1.0006,-1.0002,-0.9983,-0.9988,-0.9987,-1.0001,-0.9967,-1.0001,-1.0003,-1.0005,-1.0047,-1.0052,-1.0057,0,0,0,0,0,-1.0086,-1.0104,-1.0092,-1.009,-1.0075,-1.0072,-1.007,-1.0047,-1.0032,-1.0039,-1.0023,-1.0003,-1.0001,-0.9989,-0.9988,-1.0002,-1.0,-1.0003,-1.0005,-1.0044,-1.0051,-1.0057,0,0,0,0,0,0,-1.0129,-1.0101,-1.0087,-1.0099,-1.0088,-1.0065,-1.0074,-1.0056,-1.0049,-1.0046,-1.0018,-1.0014,-1.0023,-1.0013,-1.0001,-1.002,-0.9997,-1.0,-1.0027,-1.0034,-1.0039,-1.0042,-0.9967,0,0,0,0,0,-1.014,-1.014,-1.0116,-1.0129,-1.0124,-1.01,-1.0098,-1.0081,-1.0069,-1.0065,-1.0049,-1.0038,-1.0035,-1.0034,-1.0029,-1.0044,-1.004,-1.0053,-1.0059,-1.0063,-1.0066,-1.0073,-1.008,-1.0015,-1.0015,-1.0015,0,0,-1.0162,-1.0147,-1.0149,-1.0137,-1.0127,-1.0128,-1.0097,-1.0099,-1.0099,-1.0065,-1.007,-1.0058,-1.0044,-1.0055,-1.0058,-1.0046,-1.0083,-1.0067,-1.007,-1.0071,-1.0077,-1.0083,-1.0088,-1.0017,-1.0016,-1.0016,0,0,-1.0204,-1.0192,-1.0202,-1.0192,-1.0177,-1.0161,-1.0163,-1.0142,-1.0133,-1.0138,-1.0112,-1.0112,-1.0107,-1.0098,-1.0093,-1.013,-1.0111,-1.0129,-1.0158,-1.0165,-1.017,-1.0175,-1.0188,-1.0194,-1.0132,-1.0132,-1.0132,0,-1.0234,-1.0234,-1.0209,-1.0213,-1.0208,-1.0177,-1.0186,-1.0178,-1.0163,-1.016,-1.0146,-1.0139,-1.0127,-1.0136,-1.0145,-1.0141,-1.0143,-1.0132,-1.0171,-1.0176,-1.0179,-1.0192,-1.0197,-1.0134,-1.0134,-1.0134,-1.0133,0,-1.0272,-1.0272,-1.0282,-1.0268,-1.0264,-1.0271,-1.0246,-1.0246,-1.0229,-1.0214,-1.0219,-1.0203,-1.0195,-1.0196,-1.018,-1.0202,-1.0195,-1.0177,-1.0153,-1.0188,-1.02,-1.0205,-1.0138,-1.0137,-1.0136,-1.0135,0,0,-1.0341,-1.0312,-1.0316,-1.0309,-1.029,-1.029,-1.0295,-1.0287,-1.0287,-1.0277,-1.028,-1.0276,-1.0259,-1.0254,-1.0236,-1.0242,-1.0273,-1.0223,-1.0223,-1.0234,-1.0297,-1.0312,-1.0318,-1.026,-1.0261,-1.0262,-1.0298,0,-1.0379,-1.0387,-1.0364,-1.0377,-1.0377,-1.0347,-1.0351,-1.034,-1.0326,-1.0324,-1.0308,-1.0306,-1.0284,-1.028,-1.0285,-1.0269,-1.0286,-1.0265,-1.0264,-1.0264,-1.0269,-1.0324,-1.0339,-1.0375,-1.0303,-1.0303,-1.0304,0,-1.0426,-1.0418,-1.0431,-1.0411,-1.041,-1.0415,-1.0405,-1.0404,-1.039,-1.0379,-1.0372,-1.0352,-1.0355,-1.0331,-1.0336,-1.0322,-1.032,-1.0312,-1.0312,-1.0312,-1.0287,-1.0326,-1.0385,-1.0391,-1.0311,-1.031,-1.031,0,-1.0476,-1.0468,-1.0476,-1.047,-1.0447,-1.045,-1.0441,-1.0426,-1.0422,-1.0414,-1.0411,-1.0404,-1.04,-1.0394,-1.0372,-1.0356,-1.0378,-1.0353,-1.037,-1.0371,-1.0377,-1.0377,-1.0438,-1.0374,-1.0374,-1.0374,-1.0374,0,-1.0522,-1.0531,-1.0498,-1.0502,-1.0512,-1.0485,-1.0495,-1.0482,-1.0469,-1.047,-1.0443,-1.0445,-1.0415,-1.0413,-1.0395,-1.0402,-1.04,-1.0391,-1.0387,-1.0395,-1.0396,-1.0393,-1.0391,-1.0375,-1.0375,-1.0375,-1.0374,0,-1.058,-1.0558,-1.0564,-1.054,-1.0535,-1.0543,-1.0523,-1.0526,-1.0509,-1.0512,-1.051,-1.0485,-1.0482,-1.0458,-1.045,-1.0438,-1.0451,-1.0441,-1.0456,-1.0453,-1.0472,-1.047,-1.0534,-1.0541,-1.0472,-1.0472,-1.0473,0,-1.0611,-1.0618,-1.0595,-1.0594,-1.0586,-1.0584,-1.0581,-1.0554,-1.0551,-1.0536,-1.0541,-1.0535,-1.0529,-1.0525,-1.0506,-1.0499,-1.0489,-1.0512,-1.0488,-1.0495,-1.049,-1.0491,-1.0491,-1.0517,-1.0518,-1.0519,-1.0519,0,-1.067,-1.0658,-1.0654,-1.0646,-1.0643,-1.0635,-1.0626,-1.0626,-1.0597,-1.0595,-1.0591,-1.0587,-1.0577,-1.0572,-1.0562,-1.0551,-1.0531,-1.0527,-1.053,-1.0539,-1.0548,-1.0544,-1.0471,-1.0526,-1.0525,-1.0525,-1.0524,-1.0524,-1.0716,-1.0721,-1.0706,-1.0702,-1.0692,-1.0683,-1.0685,-1.0669,-1.0665,-1.0656,-1.064,-1.0639,-1.0624,-1.0608,-1.0599,-1.0597,-1.0585,-1.059,-1.0592,-1.0594,-1.0598,-1.0547,-1.0595,-1.0595,-1.0595,-1.0594,-1.0594,0,-1.0774,-1.0763,-1.0759,-1.0747,-1.0744,-1.0724,-1.0712,-1.0711,-1.071,-1.0698,-1.0693,-1.0688,-1.0683,-1.0663,-1.0655,-1.0658,-1.0648,-1.0657,-1.0657,-1.0655,-1.0609,-1.0607,-1.0665,-1.0665,-1.0665,-1.0665,-1.0665,-1.0664,-1.0804,-1.0811,-1.0797,-1.0799,-1.0787,-1.0785,-1.078,-1.0772,-1.0763,-1.0759,-1.0754,-1.0741,-1.0725,-1.0716,-1.071,-1.0705,-1.0703,-1.0716,-1.0707,-1.0665,-1.0658,-1.0651,-1.0649,-1.0715,-1.0715,-1.0753,-1.0753,-1.0753]},{"header":{"parameterUnit":"m.s-1","parameterCategory":1,"la1":30.2991,"la2":30.254,"lo1":-89.0895,"lo2":-89.0444,"dy":0.0017,"dx":0.0017,"nx":28,"ny":28,"refTime":"2026-02-06T09:00:00:Z","depth":0,"parameterNumber":3,"parameterNumberName":"V-component_of_WINDS"},"data":[0,0,0,0,0,0,0,0,0,0,0,0,0,0,0,0,0,0,0,0,0,0,0,0,0,0,0,0,0,0,0,0,0,0,0,0,0,0,0,0,0,0,0,0,0,0,0,0,0,0,0,0,0,0,0,0,0,0,-4.2573,-4.2574,0,-4.2692,-4.2693,-4.2695,-4.2735,-4.2734,-4.2734,-4.2733,-4.2849,-4.2852,-4.2855,0,0,0,0,0,0,0,0,0,0,0,0,0,-4.2376,-4.238,-4.2573,-4.2574,-4.2576,-4.2692,-4.2693,-4.2695,-4.2735,-4.2734,-4.2733,-4.2733,-4.2847,-4.2851,-4.2856,0,0,0,0,0,0,0,0,0,0,0,0,0,-4.2475,-4.2381,-4.2572,-4.261,-4.2614,-4.2692,-4.2694,-4.2696,-4.2735,-4.2734,-4.2733,-4.2733,-4.2846,-4.2851,-4.2856,-4.2903,0,0,-4.2872,-4.2875,0,0,0,0,0,0,0,0,-4.2469,-4.2482,-4.2603,-4.2607,-4.2612,-4.2698,-4.2667,-4.2765,-4.2735,-4.2689,-4.2733,-4.2732,-4.2798,-4.2808,-4.2831,-4.2909,-4.2914,-4.2873,-4.2876,-4.2878,-4.288,0,0,0,0,0,0,0,-4.2462,-4.2477,-4.262,-4.2604,-4.261,-4.2619,-4.2633,-4.2685,-4.2746,-4.2693,-4.2696,-4.271,-4.2801,-4.2826,-4.2834,-4.2915,-4.2873,-4.2877,-4.2881,-4.2883,-4.3042,-4.3043,0,0,0,0,0,0,-4.245,-4.2471,-4.2616,-4.2623,-4.2538,-4.2623,-4.2638,-4.2671,-4.2746,-4.2756,-4.271,-4.2711,-4.2818,-4.2828,-4.2839,-4.2902,-4.2878,-4.2883,-4.2886,-4.3041,-4.3042,-4.3043,0,0,0,0,0,0,-4.2445,-4.2462,-4.2611,-4.2548,-4.2568,-4.2628,-4.2664,-4.2674,-4.2699,-4.2759,-4.2769,-4.2725,-4.2817,-4.2831,-4.2889,-4.2906,-4.2886,-4.289,-4.304,-4.3041,-4.3043,-4.3027,0,0,0,0,0,0,-4.244,-4.2461,-4.2479,-4.2548,-4.2571,-4.266,-4.2665,-4.2677,-4.2709,-4.2711,-4.2776,-4.2786,-4.2818,-4.288,-4.2894,-4.2913,-4.2895,-4.3038,-4.3041,-4.3042,-4.3026,-4.3028,-4.3029,0,0,0,0,0,-4.2432,-4.2467,-4.248,-4.2497,-4.2596,-4.2661,-4.2674,-4.2712,-4.271,-4.273,-4.2769,-4.2784,-4.2902,-4.2886,-4.2901,-4.2923,-4.3037,-4.304,-4.3042,-4.3025,-4.3027,-4.3029,0,0,0,0,0,0,-4.2395,-4.2477,-4.2492,-4.255,-4.2599,-4.2667,-4.2693,-4.2712,-4.276,-4.276,-4.2803,-4.2818,-4.2872,-4.2903,-4.2883,-4.2974,-4.2971,-4.2976,-4.2953,-4.2955,-4.2956,-4.2948,-4.2899,0,0,0,0,0,-4.2394,-4.2441,-4.251,-4.2555,-4.2579,-4.2632,-4.2661,-4.2687,-4.2738,-4.2758,-4.2801,-4.2848,-4.2897,-4.2927,-4.2975,-4.3031,-4.3047,-4.3053,-4.3055,-4.3056,-4.306,-4.3096,-4.3101,-4.3051,-4.3051,-4.3051,0,0,-4.2391,-4.2442,-4.2469,-4.2549,-4.2589,-4.2637,-4.2648,-4.2697,-4.2733,-4.2764,-4.2823,-4.2856,-4.2912,-4.297,-4.2998,-4.2997,-4.3078,-4.3059,-4.3059,-4.3063,-4.3099,-4.3103,-4.3108,-4.3053,-4.3053,-4.3052,0,0,-4.2412,-4.2454,-4.2499,-4.2541,-4.2604,-4.264,-4.265,-4.2718,-4.2742,-4.2802,-4.2829,-4.2871,-4.2952,-4.2993,-4.3023,-4.3065,-4.3081,-4.3079,-4.3087,-4.3121,-4.3125,-4.3129,-4.3146,-4.3152,-4.3083,-4.3083,-4.3083,0,-4.24,-4.2475,-4.2518,-4.2568,-4.2604,-4.2639,-4.2685,-4.2722,-4.2796,-4.2819,-4.2818,-4.2925,-4.2965,-4.3035,-4.3046,-4.3069,-4.3083,-4.3072,-4.3122,-4.3126,-4.313,-4.3147,-4.3153,-4.3083,-4.3083,-4.3083,-4.3083,0,-4.2459,-4.251,-4.2539,-4.2614,-4.2653,-4.2699,-4.275,-4.2784,-4.2808,-4.2844,-4.2906,-4.2956,-4.3016,-4.3034,-4.3056,-4.3109,-4.3107,-4.3113,-4.311,-4.3133,-4.315,-4.3157,-4.3082,-4.3082,-4.3082,-4.3082,0,0,-4.2456,-4.2559,-4.2569,-4.2606,-4.268,-4.272,-4.277,-4.2832,-4.2862,-4.2912,-4.2956,-4.3027,-4.3035,-4.307,-4.3097,-4.3127,-4.3161,-4.313,-4.3132,-4.3136,-4.3226,-4.3222,-4.3228,-4.3172,-4.3174,-4.3175,-4.3222,0,-4.2487,-4.2581,-4.2624,-4.2697,-4.2747,-4.2783,-4.2827,-4.2877,-4.2913,-4.296,-4.2999,-4.305,-4.3055,-4.3077,-4.3109,-4.315,-4.318,-4.3147,-4.3213,-4.3215,-4.32,-4.3237,-4.3232,-4.3274,-4.3228,-4.3229,-4.323,0,-4.2536,-4.2592,-4.2671,-4.2745,-4.2768,-4.2806,-4.287,-4.2914,-4.2972,-4.2997,-4.3039,-4.3066,-4.312,-4.3114,-4.319,-4.3167,-4.3197,-4.3222,-4.3225,-4.3233,-4.3225,-4.3248,-4.3288,-4.3295,-4.3241,-4.324,-4.3239,0,-4.2529,-4.2624,-4.2685,-4.2715,-4.2801,-4.2828,-4.2865,-4.2924,-4.296,-4.3015,-4.3039,-4.3098,-4.313,-4.3175,-4.3218,-4.3209,-4.3291,-4.3287,-4.3313,-4.3312,-4.3328,-4.3327,-4.3375,-4.3345,-4.3345,-4.3345,-4.3344,0,-4.256,-4.2608,-4.2684,-4.2722,-4.2777,-4.2827,-4.288,-4.2919,-4.2972,-4.3018,-4.3052,-4.3094,-4.3147,-4.3196,-4.3229,-4.3289,-4.3302,-4.3324,-4.3332,-4.3322,-4.3319,-4.3342,-4.3341,-4.3346,-4.3346,-4.3346,-4.3345,0,-4.2561,-4.2614,-4.2684,-4.2762,-4.2783,-4.2821,-4.2888,-4.2926,-4.2965,-4.3024,-4.304,-4.3101,-4.3161,-4.3209,-4.3285,-4.3308,-4.3371,-4.338,-4.3353,-4.3358,-4.3382,-4.338,-4.3447,-4.346,-4.3419,-4.342,-4.342,0,-4.2578,-4.2617,-4.2701,-4.2737,-4.2775,-4.2829,-4.2869,-4.292,-4.2959,-4.3032,-4.3062,-4.3125,-4.3179,-4.3273,-4.3323,-4.3383,-4.3394,-4.3414,-4.3403,-4.3393,-4.3397,-4.3395,-4.3401,-4.3415,-4.3415,-4.3416,-4.3416,0,-4.2603,-4.2629,-4.2686,-4.2753,-4.28,-4.2854,-4.2909,-4.2935,-4.2997,-4.3039,-4.3103,-4.3145,-4.3227,-4.329,-4.3356,-4.3393,-4.3415,-4.3419,-4.3429,-4.3419,-4.3403,-4.3415,-4.3358,-4.3417,-4.3417,-4.3417,-4.3417,-4.3417,-4.2614,-4.2652,-4.272,-4.2783,-4.2831,-4.2883,-4.2925,-4.2972,-4.3027,-4.31,-4.3127,-4.3193,-4.3254,-4.3347,-4.3385,-4.3437,-4.3438,-4.3451,-4.3455,-4.3458,-4.3458,-4.3394,-4.3449,-4.3449,-4.3449,-4.3449,-4.3449,0,-4.2643,-4.269,-4.2748,-4.2827,-4.2877,-4.2898,-4.2961,-4.3001,-4.3061,-4.3117,-4.3172,-4.3247,-4.331,-4.3367,-4.3433,-4.3464,-4.3476,-4.3479,-4.3478,-4.3487,-4.3452,-4.3438,-4.3469,-4.3469,-4.3469,-4.3469,-4.3469,-4.3469,-4.2664,-4.2732,-4.2766,-4.2858,-4.2904,-4.2973,-4.3008,-4.3056,-4.3103,-4.3187,-4.3241,-4.328,-4.3338,-4.3409,-4.3467,-4.3483,-4.3506,-4.3507,-4.3525,-4.3491,-4.3489,-4.3486,-4.3474,-4.3511,-4.3511,-4.3556,-4.3557,-4.3557]}]]